Location: Bussy-Saint-Georges
(48.8410°N, 2.7017°E)
Time: 14:15:55
(UTC+00:00)

NOSS 3-1 (C) - Pass Details

Date: 18 October 2021
Orbit: 717 x 1491 km, 63.4° (Epoch: 25 November)

Event Time Altitude Azimuth Distance (km) Brightness Sun altitude
Rises 19:02:33 0° 202° (SSW) 3,176 6.3 -21.9°
Reaches altitude 10° 19:04:50 10° 197° (SSW) 2,307 5.5 -22.3°
Maximum altitude 19:09:54 52° 122° (ESE) 1,045 3.3 -23.1°
Enters shadow 19:09:54 52° 122° (ESE) 1,045 3.3 -23.1°
